• In Hungary
  • List of Countries
  • For 7 days
  • Water Temperature
  • Satellite Maps
  • Weather Map
  • News
  • Weather Widgets
  • user-avatar
    Login

    Hourly Weather Sovet

    Today, 17 November, Friday

    Time Temperature Precipitation Wind Pressure Humidity
    00:00 +1°C° 0 mm 2 mps 757 mmHg 88%
    01:00 +1°C° 0 mm 2 mps 757 mmHg 89%
    02:00 +2°C° 0 mm 1 mps 757 mmHg 90%
    03:00 +2°C° 0 mm 1 mps 757 mmHg 90%
    04:00 +2°C° 0 mm 1 mps 757 mmHg 91%
    05:00 +2°C° 0 mm 1 mps 757 mmHg 91%
    06:00 +1°C° 0 mm 2 mps 756 mmHg 91%
    07:00 +1°C° 0 mm 2 mps 756 mmHg 91%
    08:00 +1°C° 0 mm 2 mps 756 mmHg 90%
    09:00 +2°C° 0 mm 2 mps 756 mmHg 85%
    10:00 +2°C° 0 mm 3 mps 756 mmHg 80%
    11:00 +2°C° 0 mm 3 mps 756 mmHg 75%
    12:00 +3°C° 0 mm 3 mps 755 mmHg 72%
    13:00 +3°C° 0 mm 4 mps 755 mmHg 70%
    14:00 +3°C° 0 mm 4 mps 754 mmHg 68%
    15:00 +2°C° 0 mm 3 mps 754 mmHg 73%
    16:00 +1°C° 0 mm 3 mps 754 mmHg 78%
    17:00 +1°C° 0 mm 2 mps 754 mmHg 83%
    18:00 +1°C° 0 mm 2 mps 753 mmHg 84%
    19:00 +1°C° 0 mm 2 mps 753 mmHg 86%
    20:00 -1°C° 0 mm 2 mps 753 mmHg 88%
    21:00 -1°C° 0 mm 2 mps 753 mmHg 89%
    22:00 -1°C° 0 mm 2 mps 753 mmHg 90%
    23:00 -1°C° 0 mm 2 mps 753 mmHg 91%

    Tomorrow, 18 November, Saturday

    Time Temperature Precipitation Wind Pressure Humidity
    00:00 -1°C° 0 mm 2 mps 752 mmHg 91%
    01:00 +1°C° 0 mm 1 mps 752 mmHg 91%
    02:00 +1°C° 0 mm 1 mps 752 mmHg 91%
    03:00 +1°C° 0 mm 1 mps 752 mmHg 91%
    04:00 +1°C° 0 mm 1 mps 752 mmHg 92%
    05:00 0°C° 0 mm 1 mps 751 mmHg 92%
    06:00 +1°C° 0 mm 1 mps 751 mmHg 92%
    07:00 +1°C° 0 mm 1 mps 751 mmHg 91%
    08:00 +1°C° 0 mm 1 mps 751 mmHg 91%
    09:00 +2°C° 0 mm 1 mps 751 mmHg 86%
    10:00 +3°C° 0 mm 1 mps 751 mmHg 81%
    11:00 +3°C° 0 mm 2 mps 751 mmHg 76%
    12:00 +3°C° 0 mm 2 mps 750 mmHg 76%
    13:00 +3°C° 0 mm 2 mps 750 mmHg 76%
    14:00 +3°C° 0 mm 2 mps 749 mmHg 76%
    15:00 +3°C° 0.1 mm 2 mps 749 mmHg 80%
    16:00 +2°C° 0.1 mm 2 mps 749 mmHg 83%
    17:00 +2°C° 0.1 mm 2 mps 748 mmHg 87%
    18:00 +2°C° 0.3 mm 2 mps 748 mmHg 88%
    19:00 +2°C° 0.3 mm 2 mps 747 mmHg 90%
    20:00 +2°C° 0.3 mm 2 mps 747 mmHg 91%
    21:00 +2°C° 0.4 mm 2 mps 746 mmHg 92%
    22:00 +2°C° 0.4 mm 2 mps 746 mmHg 93%
    23:00 +1°C° 0.4 mm 2 mps 746 mmHg 93%

    Day after tomorrow, 19 November, Sunday

    Time Temperature Precipitation Wind Pressure Humidity
    00:00 +1°C° 0.3 mm 2 mps 745 mmHg 94%
    01:00 +1°C° 0.3 mm 2 mps 745 mmHg 95%
    02:00 +1°C° 0.3 mm 2 mps 745 mmHg 96%
    03:00 +1°C° 0.2 mm 2 mps 744 mmHg 97%
    04:00 +1°C° 0.2 mm 2 mps 744 mmHg 97%
    05:00 +1°C° 0.2 mm 2 mps 743 mmHg 97%
    06:00 +1°C° 0.1 mm 2 mps 743 mmHg 97%
    07:00 +1°C° 0.1 mm 2 mps 743 mmHg 97%
    08:00 +1°C° 0.1 mm 2 mps 743 mmHg 97%
    09:00 +1°C° 0 mm 2 mps 743 mmHg 95%
    10:00 +2°C° 0 mm 2 mps 743 mmHg 92%
    11:00 +2°C° 0 mm 2 mps 743 mmHg 90%
    12:00 +2°C° 0 mm 2 mps 742 mmHg 88%
    13:00 +3°C° 0 mm 2 mps 742 mmHg 86%
    14:00 +3°C° 0 mm 2 mps 742 mmHg 85%
    15:00 +2°C° 0 mm 2 mps 742 mmHg 87%
    16:00 +1°C° 0 mm 2 mps 742 mmHg 90%
    17:00 +1°C° 0 mm 2 mps 742 mmHg 92%
    18:00 +1°C° 0 mm 2 mps 743 mmHg 92%
    19:00 +1°C° 0 mm 2 mps 743 mmHg 93%
    20:00 +1°C° 0 mm 2 mps 743 mmHg 93%
    21:00 -1°C° 0 mm 2 mps 743 mmHg 93%
    22:00 -1°C° 0 mm 2 mps 743 mmHg 93%
    23:00 -1°C° 0 mm 2 mps 744 mmHg 93%

    20 November, Monday

    Time Temperature Precipitation Wind Pressure Humidity
    00:00 -1°C° 0 mm 2 mps 744 mmHg 92%
    01:00 -1°C° 0 mm 2 mps 744 mmHg 92%
    02:00 -2°C° 0 mm 2 mps 744 mmHg 91%
    03:00 -2°C° 0 mm 2 mps 744 mmHg 91%
    04:00 -2°C° 0 mm 3 mps 744 mmHg 91%
    05:00 -2°C° 0 mm 3 mps 744 mmHg 91%
    06:00 -2°C° 0 mm 3 mps 744 mmHg 91%
    07:00 -2°C° 0 mm 3 mps 744 mmHg 92%
    08:00 -2°C° 0 mm 3 mps 744 mmHg 92%
    09:00 -1°C° 0 mm 3 mps 744 mmHg 88%
    10:00 -1°C° 0 mm 4 mps 744 mmHg 84%
    11:00 0°C° 0 mm 4 mps 744 mmHg 81%
    12:00 0°C° 0 mm 4 mps 744 mmHg 80%
    13:00 +1°C° 0 mm 4 mps 744 mmHg 79%
    14:00 +1°C° 0 mm 4 mps 744 mmHg 78%
    15:00 0°C° 0.1 mm 4 mps 744 mmHg 81%
    16:00 +1°C° 0.1 mm 3 mps 744 mmHg 83%
    17:00 +1°C° 0.1 mm 3 mps 744 mmHg 86%
    18:00 0°C° 0.1 mm 3 mps 744 mmHg 87%
    19:00 -1°C° 0.1 mm 3 mps 744 mmHg 88%
    20:00 -1°C° 0.1 mm 3 mps 744 mmHg 89%
    21:00 -1°C° 0.1 mm 3 mps 744 mmHg 90%
    22:00 -2°C° 0.1 mm 3 mps 744 mmHg 90%
    23:00 -2°C° 0.1 mm 3 mps 744 mmHg 91%

    21 November, Tuesday

    Time Temperature Precipitation Wind Pressure Humidity
    00:00 -1°C° 0.1 mm 3 mps 744 mmHg 92%
    01:00 -1°C° 0.1 mm 3 mps 744 mmHg 92%
    02:00 -1°C° 0.1 mm 3 mps 744 mmHg 93%
    03:00 -1°C° 0.1 mm 3 mps 744 mmHg 92%
    04:00 -1°C° 0.1 mm 3 mps 744 mmHg 92%
    05:00 0°C° 0.1 mm 3 mps 744 mmHg 91%
    06:00 -1°C° 0 mm 3 mps 744 mmHg 91%
    07:00 -2°C° 0 mm 4 mps 744 mmHg 90%
    08:00 -2°C° 0 mm 4 mps 744 mmHg 90%
    09:00 -2°C° 0 mm 4 mps 744 mmHg 88%
    10:00 -2°C° 0 mm 4 mps 744 mmHg 86%
    11:00 -2°C° 0 mm 4 mps 744 mmHg 85%
    12:00 0°C° 0 mm 3 mps 744 mmHg 84%
    13:00 0°C° 0 mm 3 mps 744 mmHg 83%
    14:00 +1°C° 0 mm 2 mps 743 mmHg 82%
    15:00 -1°C° 0 mm 2 mps 743 mmHg 85%
    16:00 -1°C° 0 mm 2 mps 743 mmHg 88%
    17:00 -2°C° 0 mm 2 mps 743 mmHg 91%
    18:00 0°C° 0.1 mm 1 mps 743 mmHg 91%
    19:00 0°C° 0.1 mm 1 mps 743 mmHg 92%
    20:00 0°C° 0.1 mm 1 mps 743 mmHg 93%
    21:00 0°C° 0.1 mm 1 mps 742 mmHg 93%
    22:00 -2°C° 0.1 mm 2 mps 742 mmHg 93%
    23:00 -2°C° 0.1 mm 2 mps 742 mmHg 92%

    22 November, Wednesday

    Time Temperature Precipitation Wind Pressure Humidity
    00:00 -3°C° 0 mm 2 mps 743 mmHg 93%
    01:00 -3°C° 0 mm 2 mps 743 mmHg 93%
    02:00 -4°C° 0 mm 3 mps 743 mmHg 93%
    03:00 -4°C° 0 mm 3 mps 744 mmHg 93%
    04:00 -4°C° 0 mm 3 mps 744 mmHg 93%
    05:00 -5°C° 0 mm 3 mps 745 mmHg 93%
    06:00 -5°C° 0 mm 3 mps 746 mmHg 93%
    07:00 -5°C° 0 mm 3 mps 746 mmHg 93%
    08:00 -5°C° 0 mm 3 mps 747 mmHg 93%
    09:00 -4°C° 0 mm 3 mps 747 mmHg 91%
    10:00 -2°C° 0 mm 3 mps 748 mmHg 88%
    11:00 -1°C° 0 mm 3 mps 748 mmHg 85%
    12:00 0°C° 0 mm 3 mps 749 mmHg 84%
    13:00 -1°C° 0 mm 4 mps 749 mmHg 83%
    14:00 -1°C° 0 mm 4 mps 749 mmHg 82%
    15:00 0°C° 0 mm 3 mps 750 mmHg 83%
    16:00 0°C° 0 mm 3 mps 750 mmHg 84%
    17:00 -1°C° 0 mm 3 mps 751 mmHg 85%
    18:00 -1°C° 0 mm 3 mps 751 mmHg 85%
    19:00 -1°C° 0 mm 3 mps 751 mmHg 85%
    20:00 -1°C° 0 mm 3 mps 752 mmHg 86%
    21:00 -1°C° 0 mm 3 mps 752 mmHg 85%
    22:00 -1°C° 0 mm 3 mps 752 mmHg 85%
    23:00 -1°C° 0 mm 2 mps 753 mmHg 85%
    Show more